Detroit Lakes, MN

7:40 AM CDT on October 20, 2017 (GMT -0500)
Detroit Lakes

Weather History for KDTL - December, 2012

Change the Weather History Date:

Saturday, December 8, 2012

  Actual Average Record
Temperature  
Mean Temperature 26 °F -  
Max Temperature 32 °F 22 °F 47 °F (1984)
Min Temperature 21 °F 5 °F -23 °F (1960)
Degree Days  
Heating Degree Days 38    
Moisture  
Dew Point 23 °F    
Average Humidity 91    
Maximum Humidity 100    
Minimum Humidity 80    
Precipitation  
Precipitation 0.00 in - - ()
Sea Level Pressure  
Sea Level Pressure 29.97 in    
Wind  
Wind Speed 8 mph (SE)    
Max Wind Speed 12 mph    
Max Gust Speed 16 mph    
Visibility 8 miles    
Events Snow    
Averages and records for this station are not official NWS values.
T = Trace of Precipitation, MM = Missing Value Source: NWS Daily Summary

Daily Weather History Graph

Daily Weather History Graph

Search for Another Location

Airport or City:

Trip Planner

Search our weather history database for the weather conditions in past years. The results will help you decide how hot, cold, wet, or windy it might be!

Date:

Astronomy

Dec. 08, 2012 Rise Set
Actual Time 7:56 AM CST 4:35 PM CST
Civil Twilight 7:21 AM CST 5:10 PM CST
Nautical Twilight 6:42 AM CST 5:48 PM CST
Astronomical Twilight 6:05 AM CST 6:25 PM CST
Moon 2:05 AM CST (12/8) 1:20 PM CST (12/8)
Length of Visible Light 9h 48m
Length of Day
8h 38m
Waning Crescent, 28% of the Moon is Illuminated
Dec 8
Waning Crescent
Dec 13
New
Dec 19
First Quarter
Dec 28
Full
Jan 4
Last Quarter

Hourly Weather History & Observations

Time (CST) Temp. Windchill Dew Point Humidity Pressure Visibility Wind Dir Wind Speed Gust Speed Precip Events Conditions
12:13 AM 21.2 °F 13.6 °F 17.6 °F 86% 30.03 in 10.0 mi SE 5.8 mph - N/A   Mostly Cloudy
12:32 AM 21.2 °F 13.6 °F 17.6 °F 86% 30.02 in 10.0 mi SE 5.8 mph - N/A   Overcast
12:53 AM 21.2 °F 12.6 °F 17.6 °F 86% 30.02 in 10.0 mi SE 6.9 mph - N/A   Overcast
1:12 AM 21.2 °F 13.6 °F 17.6 °F 86% 30.01 in 10.0 mi SE 5.8 mph - N/A   Overcast
1:33 AM 21.2 °F 11.7 °F 17.6 °F 86% 30.00 in 10.0 mi SSE 8.1 mph - N/A   Overcast
1:53 AM 21.2 °F 11.7 °F 17.6 °F 86% 30.00 in 10.0 mi SE 8.1 mph - N/A   Overcast
2:12 AM 21.2 °F 13.6 °F 19.4 °F 93% 30.00 in 10.0 mi SE 5.8 mph - N/A   Mostly Cloudy
2:33 AM 21.2 °F 12.6 °F 19.4 °F 93% 30.00 in 10.0 mi SE 6.9 mph - N/A   Overcast
2:53 AM 21.2 °F 10.9 °F 17.6 °F 86% 30.00 in 10.0 mi SE 9.2 mph - N/A   Overcast
3:12 AM 21.2 °F 10.1 °F 17.6 °F 86% 29.99 in 10.0 mi SE 10.4 mph - N/A   Overcast
3:32 AM 21.2 °F 9.5 °F 17.6 °F 86% 29.99 in 10.0 mi SE 11.5 mph - N/A   Overcast
3:53 AM 21.2 °F 9.5 °F 17.6 °F 86% 29.98 in 10.0 mi SE 11.5 mph - N/A   Overcast
4:12 AM 21.2 °F 10.1 °F 17.6 °F 86% 29.98 in 10.0 mi SE 10.4 mph - N/A   Overcast
4:32 AM 21.2 °F 10.1 °F 19.4 °F 93% 29.98 in 10.0 mi SE 10.4 mph - N/A   Overcast
4:53 AM 21.2 °F 11.7 °F 19.4 °F 93% 29.98 in 10.0 mi SE 8.1 mph - N/A   Overcast
5:12 AM 21.2 °F 10.9 °F 19.4 °F 93% 29.98 in 10.0 mi SE 9.2 mph - N/A   Overcast
5:33 AM 21.2 °F 11.7 °F 19.4 °F 93% 29.98 in 10.0 mi SE 8.1 mph - N/A   Overcast
5:53 AM 21.2 °F 11.7 °F 19.4 °F 93% 29.97 in 10.0 mi SE 8.1 mph - N/A   Overcast
6:12 AM 21.2 °F 10.9 °F 19.4 °F 93% 29.97 in 10.0 mi SE 9.2 mph - N/A   Overcast
6:33 AM 21.2 °F 10.1 °F 21.2 °F 100% 29.96 in 10.0 mi SE 10.4 mph - N/A   Overcast
6:53 AM 21.2 °F 10.1 °F 21.2 °F 100% 29.96 in 7.0 mi SE 10.4 mph - N/A   Overcast
7:12 AM 21.2 °F 10.9 °F 21.2 °F 100% 29.95 in 4.0 mi SSE 9.2 mph - N/A   Overcast
7:32 AM 21.2 °F 10.9 °F 21.2 °F 100% 29.96 in 5.0 mi SE 9.2 mph - N/A   Overcast
7:53 AM 21.2 °F 10.9 °F 21.2 °F 100% 29.96 in 7.0 mi SE 9.2 mph - N/A   Overcast
8:12 AM 21.2 °F 10.1 °F 21.2 °F 100% 29.95 in 7.0 mi SE 10.4 mph - N/A   Overcast
8:33 AM 23.0 °F 12.4 °F 21.2 °F 93% 29.96 in 5.0 mi SE 10.4 mph - N/A   Overcast
8:53 AM 23.0 °F 12.4 °F 21.2 °F 93% 29.96 in 5.0 mi SSE 10.4 mph - N/A   Overcast
9:12 AM 23.0 °F 12.4 °F 21.2 °F 93% 29.96 in 5.0 mi SSE 10.4 mph - N/A   Overcast
9:33 AM 23.0 °F 12.4 °F 23.0 °F 100% 29.96 in 5.0 mi SE 10.4 mph - N/A   Overcast
9:53 AM 23.0 °F 11.7 °F 23.0 °F 100% 29.97 in 5.0 mi SE 11.5 mph - N/A   Overcast
10:12 AM 24.8 °F 15.3 °F 23.0 °F 93% 29.97 in 4.0 mi SE 9.2 mph - N/A   Overcast
10:33 AM 24.8 °F 15.3 °F 23.0 °F 93% 29.98 in 4.0 mi SSE 9.2 mph - N/A   Overcast
10:53 AM 26.6 °F 18.2 °F 24.8 °F 93% 29.98 in 4.0 mi SSE 8.1 mph - N/A   Overcast
11:12 AM 26.6 °F 16.8 °F 24.8 °F 93% 29.97 in 4.0 mi SSE 10.4 mph - N/A   Overcast
11:33 AM 26.6 °F 16.8 °F 26.6 °F 100% 29.96 in 4.0 mi South 10.4 mph - N/A   Overcast
11:53 AM 28.4 °F 18.5 °F 26.6 °F 93% 29.95 in 4.0 mi South 11.5 mph 16.1 mph N/A   Overcast
12:12 PM 28.4 °F 19.7 °F 26.6 °F 93% 29.95 in 5.0 mi SSE 9.2 mph - N/A   Overcast
12:33 PM 28.4 °F 19.7 °F 26.6 °F 93% 29.95 in 7.0 mi South 9.2 mph - N/A   Overcast
12:52 PM 28.4 °F 19.7 °F 26.6 °F 93% 29.94 in 7.0 mi SSE 9.2 mph - N/A   Overcast
1:12 PM 28.4 °F 19.7 °F 26.6 °F 93% 29.93 in 10.0 mi SSE 9.2 mph - N/A   Overcast
1:33 PM 30.2 °F 21.3 °F 26.6 °F 86% 29.92 in 10.0 mi SE 10.4 mph - N/A   Overcast
1:52 PM 30.2 °F 23.4 °F 26.6 °F 86% 29.92 in 10.0 mi SSE 6.9 mph - N/A   Overcast
2:12 PM 30.2 °F 22.6 °F 26.6 °F 86% 29.91 in 10.0 mi SSE 8.1 mph - N/A   Overcast
2:33 PM 30.2 °F 21.9 °F 26.6 °F 86% 29.92 in 10.0 mi SSE 9.2 mph - N/A   Overcast
2:52 PM 32.0 °F 23.6 °F 26.6 °F 80% 29.92 in 10.0 mi South 10.4 mph - N/A   Overcast
3:12 PM 32.0 °F 23.6 °F 26.6 °F 80% 29.92 in 10.0 mi SSE 10.4 mph - N/A   Overcast
3:33 PM 30.2 °F 21.9 °F 26.6 °F 86% 29.93 in 10.0 mi SSE 9.2 mph - N/A   Overcast
3:52 PM 30.2 °F 20.8 °F 26.6 °F 86% 29.93 in 10.0 mi SSE 11.5 mph - N/A   Overcast
4:12 PM 30.2 °F 21.3 °F 26.6 °F 86% 29.93 in 10.0 mi SSE 10.4 mph - N/A   Overcast
4:33 PM 30.2 °F 21.9 °F 26.6 °F 86% 29.95 in 10.0 mi SSE 9.2 mph - N/A   Overcast
4:52 PM 30.2 °F 21.9 °F 26.6 °F 86% 29.95 in 10.0 mi SE 9.2 mph - N/A   Overcast
5:13 PM 30.2 °F 23.4 °F 26.6 °F 86% 29.95 in 10.0 mi SE 6.9 mph - N/A   Overcast
5:33 PM 28.4 °F 19.7 °F 26.6 °F 93% 29.95 in 10.0 mi SE 9.2 mph - N/A   Overcast
5:52 PM 28.4 °F 20.4 °F 26.6 °F 93% 29.95 in 10.0 mi SE 8.1 mph - N/A   Mostly Cloudy
6:13 PM 28.4 °F 20.4 °F 26.6 °F 93% 29.95 in 10.0 mi SE 8.1 mph - N/A   Scattered Clouds
6:33 PM 28.4 °F 21.2 °F 26.6 °F 93% 29.95 in 10.0 mi SE 6.9 mph - N/A   Scattered Clouds
6:52 PM 28.4 °F 21.2 °F 26.6 °F 93% 29.96 in 10.0 mi SE 6.9 mph - N/A   Scattered Clouds
7:13 PM 28.4 °F 19.7 °F 26.6 °F 93% 29.96 in 10.0 mi SE 9.2 mph - N/A   Scattered Clouds
7:52 PM 28.4 °F 20.4 °F 26.6 °F 93% 29.96 in 10.0 mi ESE 8.1 mph - N/A   Clear
8:13 PM 28.4 °F 19.7 °F 24.8 °F 86% 29.96 in 10.0 mi ESE 9.2 mph - N/A   Clear
8:33 PM 28.4 °F 19.7 °F 24.8 °F 86% 29.96 in 10.0 mi ESE 9.2 mph - N/A   Clear
8:53 PM 28.4 °F 20.4 °F 24.8 °F 86% 29.96 in 10.0 mi ESE 8.1 mph - N/A   Clear
9:12 PM 28.4 °F 20.4 °F 24.8 °F 86% 29.97 in 10.0 mi ESE 8.1 mph - N/A   Scattered Clouds
9:32 PM 28.4 °F 20.4 °F 26.6 °F 93% 29.97 in 4.0 mi SE 8.1 mph - N/A Snow Light Snow
9:53 PM 28.4 °F 20.4 °F 26.6 °F 93% 29.98 in 4.0 mi ESE 8.1 mph - N/A Snow Light Snow
10:12 PM 28.4 °F 23.3 °F 26.6 °F 93% 29.98 in 4.0 mi ESE 4.6 mph - N/A Snow Light Snow
10:33 PM 28.4 °F 22.2 °F 26.6 °F 93% 29.99 in 5.0 mi ESE 5.8 mph - N/A Snow Light Snow
10:53 PM 28.4 °F 22.2 °F 26.6 °F 93% 29.99 in 3.0 mi East 5.8 mph - N/A Snow Light Snow
11:12 PM 28.4 °F 22.2 °F 26.6 °F 93% 29.99 in 2.5 mi East 5.8 mph - N/A Snow Light Snow
11:33 PM 28.4 °F 23.3 °F 26.6 °F 93% 30.00 in 2.0 mi East 4.6 mph - N/A Snow Light Snow
11:53 PM 28.4 °F 21.2 °F 26.6 °F 93% 30.00 in 2.0 mi East 6.9 mph - N/A Snow Light Snow